[Date Prev][Date Next][Thread Prev][Thread Next] - [Date Index][Thread Index][Author Index]

2 Line ISS Keps 5-21



ISS
1 25544U 98067A   05140.98621692  .00016682  00000-0  12937-3 0  5144
2 25544 051.6448 040.2384 0006100 144.7116 337.2226 15.71955882371403
----
Via the sarex mailing list at AMSAT.ORG courtesy of AMSAT-NA.
To unsubscribe, send "unsubscribe sarex" to Majordomo@amsat.org



AMSAT Top AMSAT Home